Location: *
(48.8489°N, 2.3218°E)
Time: 10:49:45
(UTC+00:00)

BREEZE M DEB (TANK) - Pass Details

Date: 23 August 2019
Orbit: 285 x 14545 km, 49.5° (Epoch: 18 September)

Event Time Altitude Azimuth Distance (km) Brightness Sun altitude
Rises 20:39:39 0° 231° (SW) 1,948 5.3 -16.3°
Reaches altitude 10° 20:41:07 10° 223° (SW) 1,229 4.1 -16.5°
Enters shadow 20:43:02 41° 165° (SSE) 616 2.2 -16.7°
Exits shadow 20:46:29 15° 80° (E) 1,890 4.7 -17.1°
Drops below altitude 10° 20:47:49 10° 76° (ENE) 2,549 5.4 -17.3°
Sets 20:52:22 0° 71° (ENE) 4,734 6.8 -17.9°
